Location: St. Louis
(38.6270°N, 90.1994°W)
Time: 05:41:22
(UTC-06:00)

A-11 Canister half - Pass Details

Date: 06 December 2021
Orbit: 1524 x 1684 km, 47.3° (Epoch: 22 January)

Event Time Altitude Azimuth Distance (km) Brightness Sun altitude
Exits shadow 06:32:29 - 300° (WNW) 4,204 10.6 -6.5°
Reaches altitude 10° 06:33:24 10° 300° (WNW) 3,916 10.5 -6.3°
Maximum altitude 06:43:28 89° 215° (SW) 1,629 9.2 -4.5°
Drops below altitude 10° 06:53:10 10° 124° (SE) 3,782 13.0 -2.8°
Sets 06:56:11 0° 124° (SE) 4,745 14.3 -2.3°
